Regional Weather Roundup
Issued by NWS

Home | Current Version | Previous Version | Graphics & Text | Print | Product List | Glossary On
Versions: 1 2 3 4 5 6 7 8 9 10 11 12 13 14 15 16 17 18 19 20 21 22 23 24 25 26 27 28 29 30 31 32 33 34 35 36 37 38 39 40 41 42 43 44 45 46 47 48 49 50
000
ASUS43 KMPX 311810
RWRMN
WEATHER ROUNDUP FOR MINNESOTA
NATIONAL WEATHER SERVICE TWIN CITIES/CHANHASSEN MN
100 PM CDT WED AUG 31 2016


NOTE: "FAIR" INDICATES FEW OR NO CLOUDS BELOW 12,000 FEET WITH NO
SIGNIFICANT WEATHER AND/OR OBSTRUCTIONS TO VISIBILITY. N/A MEANS
CURRENT SKY AND/OR WEATHER CONDITIONS ARE NOT AVAILABLE.

MNZ060>063-068>070-311900-
   Twin Cities Metro

CITY           SKY/WX    TMP DP  RH WIND       PRES   REMARKS
TWIN CITIES    SUNNY     77  51  40 N8        30.20F
6HR MIN TEMP:  58; 6HR MAX TEMP:  77;

ST PAUL        SUNNY     74  51  44 NW12G17   30.20F
CRYSTAL        SUNNY     76  50  40 NW9       30.19F
BLAINE         SUNNY     75  52  43 N8        30.21S
LAKEVILLE      SUNNY     73  54  49 NW9       30.20F
EDEN PRAIRIE   SUNNY     77  53  43 NW8       30.19F
6HR MIN TEMP:  57; 6HR MAX TEMP:  77;

LAKEVILLE      SUNNY     73  54  49 NW9       30.20F
SOUTH ST PAUL  SUNNY     75  48  38 N8        30.19F
LAKE ELMO      FAIR      73  52  46 NE10      30.21F
$$
MNZ001>005-007-008-013>017-022>024-027-028-311900-
   Northwest Minnesota

CITY           SKY/WX    TMP DP  RH WIND       PRES   REMARKS
BEMIDJI        MOSUNNY   69  54  59 N5G16     30.25F
HALLOCK        SUNNY     70  54  56 N6        30.26F
ROSEAU         SUNNY     70  54  56 N7        30.27F
WARROAD        CLOUDY    66  57  72 NE6       30.28F
THIEF RVR FALL SUNNY     68  54  60 VRB6      30.27F
CROOKSTON      SUNNY     72  52  49 E6        30.26F
FOSSTON        SUNNY     70  59  68 N5        30.27S
DETROIT LAKES  SUNNY     72  52  49 N5        30.27S
MOORHEAD       SUNNY     75  48  38 N8        30.24F
PARK RAPIDS    SUNNY     73  48  41 N8        30.25S
MAHNOMEN       FAIR      71  51  49 N5        30.26S
$$
MNZ006-009>011-018-025>026-311900-
   North Central Minnesota

CITY           SKY/WX    TMP DP  RH WIND       PRES   REMARKS
BAUDETTE       CLOUDY    66  54  65 N12       30.27S
FLAG ISLAND    CLOUDY    64  52  63 CALM      30.27S HAZE
INTL FALLS     CLOUDY    67  53  61 N7        30.25S
6HR MIN TEMP:  45; 6HR MAX TEMP:  69;

WASKISH        MOSUNNY   70  55  60 NW7       30.26F
BIG FORK       MOSUNNY   68  54  60 N7        30.25S
LONGVILLE      SUNNY     72  52  49 NW7       30.24S
GRAND RAPIDS   SUNNY     68  53  58 N12       30.25S
CRANE LAKE     CLOUDY    64  55  72 N3        30.25S
ORR            PTSUNNY   68  50  52 NW6       30.22R
COOK           PTSUNNY   66  52  59 N6        30.24S
WALKER         FAIR      69  53  57 N5        30.24F
$$
MNZ012-019>021-037-311900-
   Northeast Minnesota

CITY           SKY/WX    TMP DP  RH WIND       PRES   REMARKS
DULUTH         MOSUNNY   72  51  47 N9        30.21S
6HR MIN TEMP:  52; 6HR MAX TEMP:  73;

ELY            CLOUDY    64  50  59 N5        30.22S
HIBBING        PTSUNNY   66  52  60 N10       30.23S
EVELETH        MOSUNNY   67  50  53 NW6       30.24R
DULUTH HARBOR  SUNNY     73  55  53 E5        30.20S
TWO HARBORS    PTSUNNY   73  55  53 NW5       30.18S
SILVER BAY     CLOUDY    72  54  53 CALM      30.18S
GRAND MARAIS     N/A     69  47  45 NW3       30.17S
G MARAIS ARPRT CLOUDY    63  50  63 NW8       30.22S
$$
MNZ029>031-032-039>041-046>048-054>057-064-311900-
   West Central Minnesota

CITY           SKY/WX    TMP DP  RH WIND       PRES   REMARKS
FERGUS FALLS   SUNNY     75  55  50 N5        30.23F
WHEATON        SUNNY     79  57  47 N3        30.24F
MORRIS         SUNNY     79  54  41 CALM      30.22F
ALEXANDRIA     SUNNY     76  51  41 NW8       30.26S
ELBOW LAKE     FAIR      74  53  47 NE7       30.23F
WADENA         SUNNY     73  52  46 N9        30.24F
GLENWOOD       SUNNY     75  55  50 NW6       30.24F
APPLETON       SUNNY     77  55  47 NE3       30.22F
BENSON         SUNNY     77  52  41 CALM      30.23S
ORTONVILLE     SUNNY     79  55  44 CALM      30.23S
MADISON        SUNNY     77  55  47 CALM      30.23S
WILLMAR        FAIR      77  57  50 NW6       30.24F
$$
MNZ033>034-036-042>043-049>051-058-059-311900-
   Central Minnesota

CITY           SKY/WX    TMP DP  RH WIND       PRES   REMARKS
ST CLOUD       SUNNY     74  55  51 N8        30.22F
6HR MIN TEMP:  52; 6HR MAX TEMP:  75;

SAUK CENTRE    FAIR      74  50  42 NW6       30.24S
PAYNESVILLE    SUNNY     76  51  41 N6        30.24S
AITKIN         SUNNY     75  46  35 NW7       30.21F
PINE RIVER     SUNNY     72  52  49 NW7       30.27S
BRAINERD       SUNNY     72  54  53 N7        30.23F
STAPLES        SUNNY     73  48  40 N8        30.23F
LONG PRAIRIE   FAIR      73  52  46 W6        30.24S
LITTLE FALLS   SUNNY     72  50  46 NW5       30.23S
LITCHFIELD     SUNNY     75  57  53 N5        30.23F
BUFFALO        SUNNY     74  52  45 N6        30.23S
MAPLE LAKE     SUNNY     75  58  54 N3        30.23S
HUTCHINSON     SUNNY     75  56  50 NW7       30.23F
$$
MNZ037-044-045-052-053-311900-
   East Central Minnesota

CITY           SKY/WX    TMP DP  RH WIND       PRES   REMARKS
PRINCETON      SUNNY     75  55  50 N7        30.22S
MORA           SUNNY     73  52  46 NW6       30.23S
CAMBRIDGE      SUNNY     75  55  50 NW9       30.20S
RUSH CITY      SUNNY     73  53  48 N5        30.21F
MOOSE LAKE     SUNNY     72  48  43 NW6       30.20S
HINCKLEY       FAIR      73  52  46 N7        30.22S
CLOQUET        SUNNY     72  45  37 NW10      30.21S
MCGREGOR       SUNNY     72  48  43 N6        30.22F
$$
MNZ071>073-080-081-089-090-097-098-311900-
   Southwest Minnesota

CITY           SKY/WX    TMP DP  RH WIND       PRES   REMARKS
MONTEVIDEO     SUNNY     79  64  61 NW3       30.25S
GRANITE FALLS  SUNNY     77  59  53 NW6       30.24F
CANBY          SUNNY     78  52  41 NE3       30.24F
MARSHALL       SUNNY     74  59  59 VRB6      30.23F
REDWOOD FALLS  SUNNY     77  55  46 N7        30.22F
OLIVIA         SUNNY     73  55  53 N6        30.22F
WINDOM         SUNNY     75  54  46 N6        30.23F
WORTHINGTON    SUNNY     76  58  53 NE8       30.24F
JACKSON        CLOUDY    73  54  49 N6        30.24F
TRACY          SUNNY     76  61  60 CALM      30.24F
SLAYTON        SUNNY     75  59  57 N5        30.25F
$$
MNZ065>067-074>077-082>085-091>093-311900-
   South Central Minnesota

CITY           SKY/WX    TMP DP  RH WIND       PRES   REMARKS
MANKATO        SUNNY     73  55  53 NW7       30.21
NEW ULM        SUNNY     73  54  49 N5        30.22S
ST JAMES       SUNNY     75  57  53 CALM      30.23S
FAIRMONT       SUNNY     75  57  53 VRB6      30.22F
GLENCOE        SUNNY     75  59  57 N6        30.21F
FARIBAULT      SUNNY     75  54  46 NW6       30.21S
OWATONNA       SUNNY     75  54  46 N7        30.21S
WASECA         SUNNY     72  54  53 CALM      30.22F
ALBERT LEA     SUNNY     75  54  46 N7        30.20F
$$
MNZ078>079-086>088-094>096-311900-
   Southeast Minnesota

CITY           SKY/WX    TMP DP  RH WIND       PRES   REMARKS
ROCHESTER      SUNNY     76  54  46 N13       30.20F
6HR MIN TEMP:  56; 6HR MAX TEMP:  76;

RED WING       SUNNY     75  48  38 NW6       30.17F
STANTON        SUNNY     75  54  46 N9        30.19S
DODGE CENTER   SUNNY     73  54  49 N9        30.21S
WINONA         SUNNY     73  54  49 N5        30.17F
AUSTIN         SUNNY     73  54  49 NE6       30.20S
PRESTON        SUNNY     73  51  46 N13       30.20S
$$
ABBREVIATIONS USED IN REMARKS
   TC - TEMPERATURES IN CELSIUS
  WCI - WIND CHILL INDEX
   HX - HEAT INDEX
  VSB - VISIBILITY
$$




USA.gov is the U.S. government's official web portal to all federal, state and local government web resources and services.